CDT,Max TemperatureF,Mean TemperatureF,Min TemperatureF,Max Dew PointF,MeanDew PointF,Min DewpointF,Max Humidity, Mean Humidity, Min Humidity, Max Sea Level PressureIn, Mean Sea Level PressureIn, Min Sea Level PressureIn, Max VisibilityMiles, Mean VisibilityMiles, Min VisibilityMiles, Max Wind SpeedMPH, Mean Wind SpeedMPH, Max Gust SpeedMPH,PrecipitationIn, CloudCover, Events, WindDirDegrees
2013-5-1,84,74,64,67,65,62,93,72,51,29.90,29.87,29.82,10,8,2,18,3,23,0.83,6,Rain-Thunderstorm,88
2013-5-2,77,69,60,64,63,61,93,79,64,29.98,29.93,29.88,10,9,2,25,8,32,T,7,,354
2013-5-3,60,54,48,58,47,41,93,71,49,30.06,30.02,29.97,10,10,4,23,14,29,0.00,6,Rain,335
2013-5-4,73,59,44,52,43,33,93,60,27,30.05,29.97,29.88,10,10,8,20,7,24,0.00,0,,220
2013-5-5,66,58,50,54,42,37,89,65,40,30.07,30.00,29.92,10,10,10,22,9,28,0.00,0,,340
2013-5-6,76,62,48,56,48,44,83,60,36,30.09,30.03,29.95,10,10,10,15,6,20,0.00,0,,267
2013-5-7,83,71,59,60,55,50,90,62,33,30.07,30.02,29.99,10,10,10,13,4,16,0.00,1,,280
2013-5-8,81,70,58,63,59,56,97,71,45,30.11,30.06,30.03,10,8,1,16,5,21,0.00,0,,181
2013-5-9,80,71,62,70,65,61,100,81,62,30.10,30.04,29.98,10,9,2,14,5,18,0.00,4,,165
2013-5-10,75,70,64,72,65,62,93,86,78,30.05,29.98,29.88,10,6,0,20,7,28,2.57,6,Fog-Rain-Thunderstorm,215
2013-5-11,81,73,65,66,64,62,93,78,62,30.08,30.00,29.93,10,9,1,22,5,30,0.52,4,Rain-Thunderstorm,16
2013-5-12,81,70,58,64,58,52,93,68,42,30.18,30.12,30.07,10,9,6,16,7,22,0.00,0,,22
2013-5-13,80,66,52,54,49,43,86,57,28,30.30,30.23,30.18,10,10,10,10,3,15,0.00,0,,116
2013-5-14,82,70,58,59,55,46,93,62,30,30.28,30.22,30.17,10,9,2,13,5,18,0.00,0,,188
2013-5-15,81,71,60,65,61,54,97,68,39,30.19,30.12,30.01,10,10,5,16,5,21,0.00,0,,180
2013-5-16,82,74,66,70,66,62,93,72,51,30.03,29.96,29.91,10,10,9,18,7,23,0.00,3,,172
2013-5-17,85,79,73,72,70,67,93,76,58,30.01,29.96,29.92,10,8,5,16,8,23,0.00,5,,181
2013-5-18,87,81,74,72,70,67,93,72,50,30.05,30.01,29.97,10,9,6,15,8,20,0.00,4,,185
2013-5-19,88,81,74,73,71,69,93,74,55,29.99,29.97,29.93,10,9,7,20,10,30,0.00,5,,176
2013-5-20,88,82,76,74,72,71,88,74,59,29.99,29.95,29.88,10,10,8,18,10,24,0.00,5,,170
2013-5-21,89,83,77,74,72,69,88,72,55,29.94,29.90,29.81,10,10,3,20,9,28,0.03,5,Rain,173
2013-5-22,82,76,69,74,71,66,93,81,69,29.97,29.91,29.81,10,8,0,26,5,35,1.03,6,Fog-Rain-Thunderstorm,161
2013-5-23,89,78,67,74,70,61,100,78,56,30.06,30.01,29.96,10,7,0,29,4,36,0.63,6,Fog-Rain,147
2013-5-24,90,79,67,74,69,65,97,75,52,30.16,30.11,30.04,10,8,0,14,2,25,0.08,3,Fog-Rain,57
2013-5-25,87,79,71,73,69,64,93,74,55,30.20,30.15,30.11,10,10,8,9,3,15,T,4,Rain-Thunderstorm,108
2013-5-26,87,79,71,72,69,67,90,71,51,30.16,30.12,30.08,10,10,10,13,4,38,0.03,2,Thunderstorm,148
2013-5-27,88,80,71,72,69,63,93,69,45,30.11,30.07,30.00,10,10,9,17,5,23,0.00,2,,170
2013-5-28,87,79,71,70,68,64,93,71,48,30.04,30.00,29.97,10,10,10,17,6,23,0.00,1,,166
2013-5-29,88,78,68,73,70,67,97,76,55,29.99,29.95,29.89,10,10,6,17,6,22,0.01,2,Rain,148
2013-5-30,89,82,74,74,72,68,94,75,55,29.97,29.94,29.90,10,9,5,18,7,24,0.00,2,,151
2013-5-31,88,82,75,75,73,71,94,77,59,29.98,29.95,29.91,10,10,9,16,6,21,T,5,,165